Location: Newark
(50.2225°N, 86.0456°E)
Time: 12:46:19
(UTC+00:00)

ISS - Visible Passes

Search period start: 19 January 2020 00:00
Search period end: 29 January 2020 00:00
Orbit: 415 x 421 km, 51.6° (Epoch: 19 January)

Date Brightness Start Highest point End Pass type
(mag) Time Alt. Az. Time Alt. Az. Time Alt. Az.
20 Jan -1.1 12:47:54 10° SSE 12:47:55 10° SSE 12:47:55 10° SSE visible
21 Jan -1.0 13:34:28 10° SW 13:35:09 15° SSW 13:35:09 15° SSW visible
22 Jan -2.3 12:46:50 10° SSW 12:49:20 25° SSE 12:49:20 25° SSE visible
23 Jan -1.8 11:59:28 10° S 12:01:49 18° SE 12:03:27 13° ESE visible
23 Jan -1.6 13:34:49 10° WSW 13:36:23 25° WSW 13:36:23 25° WSW visible
24 Jan -3.5 12:46:53 10° SW 12:50:09 51° SSE 12:50:26 49° SE visible
25 Jan -2.8 11:59:04 10° SW 12:02:10 36° SSE 12:04:25 16° E visible
25 Jan -1.9 13:35:26 10° W 13:37:21 31° W 13:37:21 31° W visible
26 Jan -3.9 12:47:21 10° WSW 12:50:43 87° SSE 12:51:17 59° E visible
27 Jan -3.6 11:59:18 10° WSW 12:02:39 68° SSE 12:05:11 16° ENE visible
27 Jan -2.0 13:36:08 10° W 13:38:07 32° WNW 13:38:07 32° WNW visible
28 Jan -3.7 12:47:59 10° W 12:51:20 70° N 12:52:00 52° NE visible
28 Jan -0.1 14:24:52 10° WNW 14:24:55 10° WNW 14:24:55 10° WNW visible
